User: anonymous   Login
Location: Montr�al
(45.5000°N, 73.5830°W)
Time: 00:45:34
(UTC-05:00)
Language:

Cosmos 1470 Rocket - Orbit

View from above orbital plane
View from above orbital plane
View from above satellite
View from above satellite

Ground track
Ground track

The orbit data is extracted from the following two-line orbital elements,

1 14148U 83061B   16039.88879439  .00000272  00000-0  30287-4 0  9996
2 14148  82.5192  12.5138 0022164 158.0172 263.6134 14.83127795761574
Epoch (UTC): 08 February 2016 21:19:51
Eccentricity: 0.0022164
inclination: 82.5192°
perigee height: 604 km
apogee height: 635 km
right ascension of ascending node: 12.5138°
argument of perigee: 158.0172°
revolutions per day: 14.83127795
mean anomaly at epoch: 263.6134°
orbit number at epoch: 76157

The dashed part of the orbit path shows where the satellite is in the earth's shadow,  

DLR